Find Kosmos-717

NORAD ID: 7684 Int'l Des: 1975-016 Owner: GUKOSR Country: SU operational
LEOCIRCULAR

Current View

Loading 3D Globe...

About Kosmos-717

Description loading...

Upcoming Passes

Passes for default location (London). Set your location on the main map for personalized predictions.

Altitude History

Loading altitude history...

Two-Line Element Set

1 7684U 75016G 26151.20340088 .00000002 00000-0 12778-3 0 9994
2 7684 74.0052 55.7378 0035076 46.2405 68.2532 12.39834453319733
Epoch: May 31, 2026 • Age: 16 hours

Current Status

Altitude 1546.8 km
Velocity 7.09 km/s
Sub-Earth Point -68.62°S, 159.36°E
Type other

Most Searched